Location: Moscow
(38.3171°N, 79.0889°W)
Time: 23:54:50
(UTC+00:00)

SWARM C - Pass Details

Date: 07 November 2025
Orbit: 425 x 428 km, 87.3° (Epoch: 14 December)

Event Time Altitude Azimuth Distance (km) Brightness Sun altitude
Rises 22:52:01 0° 1° (N) 2,412 8.1 -8.6°
Reaches altitude 10° 22:54:04 10° 4° (N) 1,538 7.1 -9.0°
Maximum altitude 22:57:23 68° 88° (E) 468 4.4 -9.7°
Drops below altitude 10° 23:00:39 10° 172° (S) 1,520 7.3 -10.3°
Sets 23:02:41 0° 175° (S) 2,379 8.4 -10.7°
